Regional Weather Roundup
Issued by NWS

Home | Current Version | Previous Version | Graphics & Text | Print | Product List | Glossary On
Versions: 1 2 3 4 5 6 7 8 9 10 11 12 13 14 15 16 17 18 19 20 21 22 23 24 25 26 27 28 29 30 31 32 33 34 35 36 37 38 39 40 41 42 43 44 45 46 47 48 49 50
000
ASUS43 KLSX 251807
RWRMO

WEATHER SUMMARY FOR MISSOURI
NATIONAL WEATHER SERVICE SPRINGFIELD MO
100 PM CDT WED APR 25 2018

NOTE: "FAIR" INDICATES FEW OR NO CLOUDS BELOW 12,000 FEET WITH NO
       SIGNIFICANT WEATHER AND/OR OBSTRUCTIONS TO VISIBILITY.
       CURRENT SKY AND/OR WEATHER CONDITIONS ARE NOT AVAILABLE FOR
       CHILLICOTHE AND FARMINGTON.

MOZ001>031-035>038-043-044-053-054-251900-
...NORTHERN AND WESTERN MISSOURI...

CITY           SKY/WX    TMP DP  RH WIND       PRES   REMARKS
KANSAS CTY INT RAIN      48  46  93 N9        30.15S FOG
6HR MIN TEMP:  48; 6HR MAX TEMP:  50; 6HR PCP:  0.14;

KANSAS C DTWN  LGT RAIN  50  46  86 N8        30.14S FOG
6HR MIN TEMP:  50; 6HR MAX TEMP:  54; 6HR PCP:  0.01;

LEE`S SUMMIT   LGT RAIN  50  48  93 N7        30.14S
6HR MIN TEMP:  50; 6HR MAX TEMP:  53; 6HR PCP:  0.02;

ST JOSEPH      LGT RAIN  48  47  96 N12       30.17F
6HR MIN TEMP:  48; 6HR MAX TEMP:  49; 6HR PCP:  0.27;

CHILLICOTHE      N/A     50  45  83 N7        30.15F
6HR MIN TEMP:  49; 6HR MAX TEMP:  54; 6HR PCP:  0.02;

KIRKSVILLE     CLOUDY    54  43  66 N8        30.12F
6HR MIN TEMP:  50; 6HR MAX TEMP:  54;


$$
MOZ066>068-077>081-088>096-101>105-251900-
...SOUTHWEST MISSOURI...

CITY           SKY/WX    TMP DP  RH WIND       PRES   REMARKS
SPRINGFIELD    LGT RAIN  55  50  83 CALM      30.10F
6HR MIN TEMP:  53; 6HR MAX TEMP:  55; 6HR PCP:  0.11;

JOPLIN         LGT RAIN  56  53  90 S6        30.10F FOG
6HR MIN TEMP:  52; 6HR MAX TEMP:  56; 6HR PCP:  0.22;

BRANSON        LGT RAIN  52  52 100 CALM      30.13F FOG

$$
MOZ032>034-039>042-045>050-055>058-069>072-251900-
...CENTRAL MISSOURI...

CITY           SKY/WX    TMP DP  RH WIND       PRES   REMARKS
COLUMBIA       CLOUDY    58  41  53 NW8       30.09F
6HR MIN TEMP:  54; 6HR MAX TEMP:  59;

JEFFERSON CITY CLOUDY    60  40  47 W8        30.08F
6HR MIN TEMP:  54; 6HR MAX TEMP:  61;

ROLLA          CLOUDY    57  43  59 W10       30.08F
6HR MIN TEMP:  50; 6HR MAX TEMP:  59;

SEDALIA        LGT RAIN  53  50  89 NW7       30.12F
6HR MIN TEMP:  53; 6HR MAX TEMP:  57; 6HR PCP:  0.01;

WHITEMAN AFB   LGT RAIN  51  48  90 NW8       30.08F FOG
WARRENSBURG    DRIZZLE   50  46  87 N5        30.13F
OSAGE BEACH    CLOUDY    59  44  57 VRB7      30.10F

$$
MOZ051-052-059>065-251900-
...EAST CENTRAL MISSOURI...

CITY           SKY/WX    TMP DP  RH WIND       PRES   REMARKS
ST LOUIS INTL  CLOUDY    64  53  67 N5        30.04F
6HR MIN TEMP:  50; 6HR MAX TEMP:  65;

SPIRIT OF STL  CLOUDY    65  49  56 N6        30.04F
6HR MIN TEMP:  51; 6HR MAX TEMP:  65;

ST CHARLES     CLOUDY    64  52  64 NE10      30.04F
6HR MIN TEMP:  56; 6HR MAX TEMP:  65;


$$
MOZ072>076-082>087-097>100-106>115-251900-
...SOUTH CENTRAL AND SOUTHEAST MISSOURI...

CITY           SKY/WX    TMP DP  RH WIND       PRES   REMARKS
CAPE GIRARDEAU FAIR      69  51  52 CALM      30.00F
6HR MIN TEMP:  46; 6HR MAX TEMP:  69;

FARMINGTON     CLOUDY    66  45  46 N7        30.04S
6HR MIN TEMP:  49; 6HR MAX TEMP:  66;

POPLAR BLUFF   FAIR      69  53  56 SE8       30.01S
6HR MIN TEMP:  49; 6HR MAX TEMP:  70;

WEST PLAINS    CLOUDY    60  45  57 W12       30.08F
6HR MIN TEMP:  51; 6HR MAX TEMP:  60;


$$




USA.gov is the U.S. government's official web portal to all federal, state and local government web resources and services.